EW4696 Weather Reports


time (UTC)temp
C
wind
direction
speed
KPH
gust
KPH
rain 1hr
cm
rain 24hr
cm
rain mn
cm
humidity
%
barometer
mb
20210620094504 24 0 0.0 6.4 0.00 0.00 0.00 85 1011.4
20210620093005 24 0 0.0 1.6 0.00 0.00 0.00 85 1011.4
20210620091504 24 0 0.0 3.2 0.00 0.00 0.00 85 1011.4
20210620090005 24 0 0.0 6.4 0.00 0.00 0.00 84 1011.4
20210620084505 24 185 1.6 8.0 0.00 0.00 0.00 84 1011.4
20210620083004 24 0 0.0 4.8 0.00 0.00 0.00 83 1011.5
20210620081505 25 0 0.0 1.6 0.00 0.00 0.00 83 1011.3
20210620080005 25 0 0.0 6.4 0.00 0.00 0.00 82 1011.5
20210620074504 25 0 0.0 4.8 0.00 0.00 0.00 81 1011.6
20210620073004 25 0 0.0 8.0 0.00 0.00 0.00 81 1011.8
20210620071505 25 194 1.6 4.8 0.00 0.00 0.00 80 1011.7
20210620070004 25 205 1.6 9.7 0.00 0.00 0.00 79 1011.8
20210620064504 26 0 0.0 4.8 0.00 0.00 0.00 79 1012.0
20210620063005 26 0 0.0 9.7 0.00 0.00 0.00 78 1012.1
20210620061504 26 202 1.6 11.3 0.00 0.00 0.00 78 1012.1
20210620060005 26 182 1.6 9.7 0.00 0.00 0.00 78 1012.2
20210620054505 26 199 1.6 9.7 0.00 0.00 0.00 77 1012.4
20210620053004 27 196 1.6 11.3 0.00 0.00 0.00 77 1012.3
20210620051504 27 197 1.6 9.7 0.00 0.00 0.00 76 1012.4
20210620050005 27 187 1.6 8.0 0.00 0.00 0.00 75 1012.5
20210620044504 27 0 0.0 6.4 0.00 0.00 0.00 74 1012.5
20210620043004 27 0 0.0 8.0 0.00 0.00 0.00 73 1012.4
20210620041504 28 199 1.6 11.3 0.00 0.00 0.00 71 1012.3
20210620040004 28 209 1.6 9.7 0.00 0.00 0.00 69 1012.2
20210620034505 28 0 0.0 1.6 0.00 0.00 0.00 67 1012.1
20210620033005 28 0 0.0 3.2 0.00 0.00 0.00 66 1011.9
20210620031505 28 0 0.0 4.8 0.00 0.00 0.00 65 1011.6
20210620030006 28 0 0.0 1.6 0.00 0.00 0.00 64 1011.5
20210620024506 28 0 0.0 3.2 0.00 0.00 0.00 63 1011.4
20210620023005 28 0 0.0 3.2 0.00 0.00 0.00 62 1011.3
20210620021506 29 0 0.0 4.8 0.00 0.00 0.00 61 1011.3
20210620020006 29 0 0.0 6.4 0.00 0.00 0.00 59 1011.1
20210620014505 30 0 0.0 4.8 0.00 0.00 0.00 58 1011.0
20210620013005 30 0 0.0 4.8 0.00 0.00 0.00 56 1011.0
20210620011506 30 0 0.0 3.2 0.00 0.00 0.00 55 1011.0
20210620010005 31 0 0.0 4.8 0.00 0.00 0.00 53 1010.9
20210620004505 31 0 0.0 4.8 0.00 0.00 0.00 51 1010.8
20210620003005 31 0 0.0 9.7 0.00 0.00 0.00 50 1010.8
20210620001505 31 0 0.0 6.4 0.00 0.00 0.00 49 1010.7
20210620000006 31 0 0.0 9.7 0.00 0.00 0.00 48 1010.6
20210619234505 32 187 1.6 8.0 0.00 0.00 0.00 49 1010.7
20210619233006 32 0 0.0 4.8 0.00 0.00 0.00 47 1010.7
20210619231506 32 207 1.6 8.0 0.00 0.00 0.00 47 1010.6
20210619230005 32 0 0.0 4.8 0.00 0.00 0.00 46 1010.7
20210619224505 33 197 1.6 9.7 0.00 0.00 0.00 46 1010.8
20210619223006 33 186 1.6 4.8 0.00 0.00 0.00 47 1010.9
20210619221505 33 0 0.0 6.4 0.00 0.00 0.00 46 1010.9
20210619220006 33 182 1.6 6.4 0.00 0.00 0.00 46 1010.9
20210619214505 34 0 0.0 8.0 0.00 0.00 0.00 44 1010.9
20210619213005 34 193 1.6 8.0 0.00 0.00 0.00 44 1011.0
20210619211505 34 222 1.6 4.8 0.00 0.00 0.00 45 1011.2
20210619210005 34 170 1.6 6.4 0.00 0.00 0.00 47 1011.3
20210619204505 33 177 1.6 6.4 0.00 0.00 0.00 46 1011.5
20210619203005 34 0 0.0 4.8 0.00 0.00 0.00 43 1011.6
20210619201506 34 0 0.0 3.2 0.00 0.00 0.00 45 1011.7
20210619200005 33 179 1.6 8.0 0.00 0.00 0.00 46 1011.9
20210619194505 33 0 0.0 6.4 0.00 0.00 0.00 48 1012.0
20210619193006 33 203 1.6 4.8 0.00 0.00 0.00 50 1012.1
20210619191505 33 160 1.6 8.0 0.00 0.00 0.00 52 1012.2
20210619190005 33 0 0.0 4.8 0.00 0.00 0.00 47 1012.4
20210619184505 33 0 0.0 9.7 0.00 0.00 0.00 51 1012.8
20210619183005 32 0 0.0 4.8 0.00 0.00 0.00 52 1012.7
20210619181506 32 0 0.0 6.4 0.00 0.00 0.00 52 1013.1
20210619180005 32 0 0.0 4.8 0.00 0.00 0.00 55 1013.2
20210619174505 31 195 1.6 8.0 0.00 0.00 0.00 53 1013.4
20210619173006 31 186 1.6 6.4 0.00 0.00 0.00 55 1013.6
20210619171505 31 0 0.0 8.0 0.00 0.00 0.00 55 1013.7
20210619170005 31 182 1.6 8.0 0.00 0.00 0.00 57 1013.8
20210619164505 31 175 1.6 11.3 0.00 0.00 0.00 55 1014.0
20210619163005 31 188 1.6 9.7 0.00 0.00 0.00 56 1014.1
20210619161505 30 0 0.0 8.0 0.00 0.00 0.00 58 1014.2
20210619160005 30 0 0.0 6.4 0.00 0.00 0.00 61 1014.1
20210619154506 30 177 1.6 9.7 0.00 0.00 0.00 64 1014.1
20210619153005 29 0 0.0 6.4 0.00 0.00 0.00 62 1014.0
20210619151505 28 179 1.6 9.7 0.00 0.00 0.00 65 1014.1
20210619150005 28 0 0.0 6.4 0.00 0.00 0.00 66 1014.1
20210619144505 27 0 0.0 4.8 0.00 0.00 0.00 69 1014.0
20210619143005 27 0 0.0 6.4 0.00 0.00 0.00 70 1014.1
20210619141505 26 0 0.0 6.4 0.00 0.00 0.00 73 1014.1
20210619140006 26 0 0.0 3.2 0.00 0.00 0.00 73 1014.1
20210619134505 25 0 0.0 1.6 0.00 0.00 0.00 75 1014.0
20210619133005 25 0 0.0 3.2 0.00 0.00 0.00 76 1013.7
20210619131505 24 0 0.0 3.2 0.00 0.00 0.00 79 1013.6
20210619130006 23 0 0.0 1.6 0.00 0.00 0.00 81 1013.5
20210619124505 22 0 0.0 1.6 0.00 0.00 0.00 83 1013.4
20210619123005 21 0 0.0 0.0 0.00 0.00 0.00 84 1013.3
20210619121505 20 0 0.0 0.0 0.00 0.00 0.00 84 1013.2
20210619120006 20 0 0.0 0.0 0.00 0.00 0.00 83 1013.1
20210619114505 20 0 0.0 0.0 0.00 0.00 0.00 83 1013.1
20210619113005 20 0 0.0 0.0 0.00 0.00 0.00 82 1013.0
20210619111505 20 0 0.0 0.0 0.00 0.00 0.00 81 1012.9
20210619110005 20 0 0.0 0.0 0.00 0.00 0.00 81 1012.8
20210619104505 20 0 0.0 0.0 0.00 0.00 0.00 81 1012.7
20210619103004 20 0 0.0 0.0 0.00 0.00 0.00 80 1012.7
20210619101505 20 0 0.0 0.0 0.00 0.00 0.00 80 1012.6
20210619100005 20 0 0.0 0.0 0.00 0.00 0.00 80 1012.4